Weather History for KUIN - November, 2014

Change the Weather History Date:

Monday, November 3, 2014

  Actual Average Record
Temperature  
Mean Temperature 58 °F 49 °F  
Max Temperature 70 °F 58 °F 78 °F (1964)
Min Temperature 45 °F 39 °F 11 °F (1951)
Degree Days  
Heating Degree Days 7 17  
Month to date heating degree days 61 49  
Since 1 July heating degree days 474 473  
Cooling Degree Days 0 0  
Month to date cooling degree days 0 0  
Year to date cooling degree days 1021 1093  
Growing Degree Days 7 (Base 50)    
Moisture  
Dew Point 41 °F    
Average Humidity 52    
Maximum Humidity 63    
Minimum Humidity 41    
Precipitation  
Precipitation 0.01 in 0.10 in 1.83 in (1974)
Month to date precipitation 0.01 0.30  
Year to date precipitation 37.97 32.36  
Sea Level Pressure  
Sea Level Pressure 30.05 in    
Wind  
Wind Speed 16 mph (SSW)    
Max Wind Speed 26 mph    
Max Gust Speed 34 mph    
Visibility 10 miles    
Events Rain    
T = Trace of Precipitation, MM = Missing Value Source: NWS Daily Summary

Daily Weather History Graph

Daily Weather History Graph

Search for Another Location

Airport or City:

Trip Planner

Search our weather history database for the weather conditions in past years. The results will help you decide how hot, cold, wet, or windy it might be!

Date:

Astronomy

Nov. 03, 2014 Rise Set
Actual Time 6:36 AM CST 5:00 PM CST
Civil Twilight 6:07 AM CST 5:28 PM CST
Nautical Twilight 5:35 AM CST 6:00 PM CST
Astronomical Twilight 5:04 AM CST 6:31 PM CST
Moon 3:09 PM CST 2:46 AM CST
Length of Visible Light 11h 20m
Length of Day
10h 24m
Waxing Gibbous, 87% of the Moon is Illuminated
Nov 3
Waxing Gibbous
Nov 6
Full
Nov 14
Last Quarter
Nov 22
New
Nov 29
First Quarter

Hourly Weather History & Observations

Time (CST) Temp. Windchill Dew Point Humidity Pressure Visibility Wind Dir Wind Speed Gust Speed Precip Events Conditions
12:54 AM 46.0 °F 40.2 °F 24.1 °F 42% 30.12 in - South 12.7 mph - N/A   Clear
1:54 AM 46.9 °F - 25.0 °F 42% 30.12 in - South 11.5 mph - N/A   Clear
2:54 AM 46.0 °F 41.9 °F 26.1 °F 46% 30.13 in - South 8.1 mph - N/A   Clear
3:54 AM 45.0 °F 39.3 °F 27.0 °F 49% 30.13 in - South 11.5 mph - N/A   Clear
4:54 AM 46.9 °F - 28.0 °F 48% 30.11 in - South 15.0 mph - N/A   Clear
5:54 AM 48.0 °F - 28.9 °F 48% 30.10 in - South 16.1 mph 23.0 mph N/A   Clear
6:54 AM 48.0 °F - 30.0 °F 50% 30.11 in - South 15.0 mph - N/A   Clear
7:54 AM 51.1 °F - 30.9 °F 46% 30.11 in - South 17.3 mph 25.3 mph N/A   Clear
8:54 AM 55.9 °F - 35.1 °F 45% 30.11 in - SSW 16.1 mph 28.8 mph N/A   Clear
9:54 AM 59.0 °F - 37.9 °F 46% 30.10 in - SSW 21.9 mph 31.1 mph N/A   Clear
10:54 AM 62.1 °F - 39.9 °F 44% 30.07 in 10.0 mi SSW 19.6 mph 28.8 mph N/A   Clear
11:54 AM 64.9 °F - 43.0 °F 45% 30.04 in 10.0 mi SSW 19.6 mph 28.8 mph N/A   Clear
12:54 PM 68.0 °F - 45.0 °F 43% 30.02 in 10.0 mi SSW 20.7 mph 28.8 mph N/A   Clear
1:54 PM 69.1 °F - 46.0 °F 44% 29.98 in 10.0 mi SSW 18.4 mph 26.5 mph N/A   Clear
2:54 PM 69.1 °F - 46.9 °F 45% 29.98 in 10.0 mi SSW 18.4 mph 29.9 mph N/A   Clear
3:54 PM 68.0 °F - 48.0 °F 49% 29.99 in 10.0 mi SSW 13.8 mph 24.2 mph N/A   Overcast
4:54 PM 66.9 °F - 48.9 °F 52% 29.99 in 10.0 mi SSW 17.3 mph 25.3 mph N/A   Overcast
5:54 PM 66.0 °F - 50.0 °F 56% 30.00 in 10.0 mi South 13.8 mph - N/A   Overcast
6:54 PM 66.0 °F - 50.0 °F 56% 29.99 in 10.0 mi South 15.0 mph - N/A   Overcast
7:54 PM 66.0 °F - 48.9 °F 54% 29.99 in 10.0 mi South 13.8 mph - N/A   Overcast
8:54 PM 64.9 °F - 48.0 °F 54% 29.98 in 10.0 mi South 15.0 mph - N/A   Overcast
9:54 PM 64.9 °F - 48.0 °F 54% 29.99 in 10.0 mi SSW 18.4 mph 24.2 mph N/A   Overcast
10:54 PM 64.0 °F - 51.1 °F 63% 29.99 in 10.0 mi SW 13.8 mph - N/A   Overcast
11:28 PM 59.0 °F - 55.0 °F 87% 30.00 in 8.0 mi SW 13.8 mph - 0.00 in Rain Light Rain
11:54 PM 59.0 °F - 55.9 °F 90% 29.99 in 10.0 mi SSW 13.8 mph - 0.01 in Rain Light Rain